RADUGA 9 [-]

Last updated on Sept. 26, 2020, 5:40 a.m. UTC

1 12618U 81069A   20269.85688824 -.00000340  00000-0  00000-0 0  9998
2 12618  11.3214 314.7263 0002532 100.1386 359.2190  1.00334184 26381
UTC
Height (km)
Latitude
Longitude
Inclination
Orbital Period
UTC large
Height (km)
Speed (km/s)
/
Latitude / Longitude
Inclination (degrees)
Orbital Period (minutes)
Azimuth
Elevation
Range (km)
Doppler Factor
iOS Compass Heading
iOS Angle

Next 30 passes for location: Hong Kong

Rise time Rise Azimuth (degrees) Set time Set Azimuth (degrees) Duration Max altitude (degrees)

No matching passes for this satellites